This is the latest recevied weather packets stored in our database for station/object WX4FUN-13. If no packets are shown the sender has not sent any weather packets the latest 10 day(s).
| Time | Temp. | Humidity | Pressure | Rain* | Wind** | Luminosity | Snow |
|---|---|---|---|---|---|---|---|
| 1777251631 | 12.22° C | 50% | 1021.4 hPa | 0 mm | - | 0 W/m² | - |
| 1777251031 | 12.78° C | 48% | 1021.4 hPa | 0 mm | - | 0 W/m² | - |
| 1777250428 | 13.33° C | 45% | 1021.2 hPa | 0 mm | - | 0 W/m² | - |
| 1777249828 | 13.89° C | 44% | 1021.1 hPa | 0 mm | - | 0 W/m² | - |
| 1777249228 | 14.44° C | 40% | 1021.1 hPa | 0 mm | - | 0 W/m² | - |
| 1777248628 | 14.44° C | 38% | 1020.9 hPa | 0 mm | - | 0 W/m² | - |
| 1777248028 | 15° C | 37% | 1020.8 hPa | 0 mm | - | 0 W/m² | - |
| 1777247428 | 15.56° C | 37% | 1020.7 hPa | 0 mm | - | 0 W/m² | - |
| 1777246828 | 15.56° C | 36% | 1020.4 hPa | 0 mm | - | 4 W/m² | - |
| 1777246227 | 16.11° C | 35% | 1020.3 hPa | 0 mm | - | 8 W/m² | - |
| 1777245628 | 16.67° C | 34% | 1020.2 hPa | 0 mm | - | 14 W/m² | - |
| 1777245029 | 17.22° C | 34% | 1020 hPa | 0 mm | - | 21 W/m² | - |
| 1777244428 | 17.22° C | 33% | 1019.9 hPa | 0 mm | - | 25 W/m² | - |
| 1777243828 | 17.78° C | 31% | 1019.8 hPa | 0 mm | - | 29 W/m² | - |
| 1777243223 | 18.89° C | 31% | 1019.8 hPa | 0 mm | - | 46 W/m² | - |
| 1777242623 | 20° C | 30% | 1019.7 hPa | 0 mm | - | 57 W/m² | - |
| 1777242023 | 20° C | 28% | 1019.7 hPa | 0 mm | - | 93 W/m² | - |
| 1777241424 | 20.56° C | 29% | 1019.7 hPa | 0 mm | - | 126 W/m² | - |
| 1777240824 | 21.11° C | 27% | 1019.6 hPa | 0 mm | - | 207 W/m² | - |
| 1777240219 | 21.11° C | 27% | 1019.6 hPa | 0 mm | - | 240 W/m² | - |
| 1777239618 | 21.67° C | 26% | 1019.6 hPa | 0 mm | - | 273 W/m² | - |
| 1777239017 | 22.78° C | 25% | 1019.6 hPa | 0 mm | - | 309 W/m² | - |
| 1777238417 | 21.67° C | 26% | 1019.5 hPa | 0 mm | - | 347 W/m² | - |
| 1777237820 | 21.67° C | 26% | 1019.4 hPa | 0 mm | - | 381 W/m² | - |
| 1777237217 | 21.11° C | 28% | 1019.4 hPa | 0 mm | - | 413 W/m² | - |
* Rain latest hour (hover to see other rain measurements)
** Current wind speed in m/s (hover to see current wind gust speed)